SCP
1 1 1 1 1 1 2 2 3 3 2 2 2 2 2 2 2 2 1 1 1 1 1 1 1 1 1 1 1 1 1 1 0 0 0 0 0 0 0 0 0 0 0
1 1 1 1 1 1 2 2 3 3 2 2 3 2 2 2 2 2 2 1 1 1 1 1 1 1 1 1 1 1 1 0 0 0 0 0 0 0 0 0 0 0 0
1 1 2 2 2 2 2 2 3 3 2 2 2 2 2 2 2 2 1 1 1 1 1 1 1 1 1 1 1 1 1 0 0 0 0 0 0 0 0 0 0 0 0
2 2 2 2 2 2 2 2 3 2 2 2 2 2 2 2 2 2 1 1 1 1 1 1 1 1 1 1 1 1 1 1 0 0 0 0 0 0 0 0 0 0 0
2 2 2 3 3 3 2 2 2 2 2 2 2 2 2 2 2 2 1 1 1 1 1 1 1 1 1 1 1 1 1 1 0 0 0 0 0 0 0 0 0 0 0
2 2 2 3 4 3 3 3 3 3 2 2 2 2 2 2 2 2 2 1 1 1 1 1 1 1 1 1 1 1 1 0 0 0 0 0 0 0 0 0 0 0 0
2 2 2 3 4 4 4 3 3 3 3 2 2 2 2 2 2 2 2 1 1 1 1 1 1 1 1 1 1 1 1 0 0 0 0 0 0 0 0 0 0 0 0
3 3 3 3 4 5 4 4 3 3 3 2 2 2 2 2 2 2 1 1 1 1 1 1 1 1 1 1 1 1 0 0 0 0 0 0 0 0 0 0 0 0 0
3 3 3 3 4 5 5 4 4 3 3 3 2 2 2 2 2 2 1 1 1 1 1 1 1 1 1 1 1 1 0 0 0 0 0 0 0 0 0 0 0 0 0
3 3 3 4 4 5 5 5 5 4 4 3 3 2 2 2 2 2 2 1 1 1 1 1 1 1 1 1 1 1 0 0 0 0 0 0 0 1 0 0 0 0 0
3 3 4 4 5 5 5 6 6 5 4 4 3 3 3 2 2 2 2 1 1 1 1 1 1 1 1 1 1 1 0 0 0 0 0 0 0 1 1 1 0 0 0
3 3 4 4 4 5 5 6 6 6 5 5 4 3 3 3 3 2 2 2 1 1 1 1 1 1 1 1 1 1 1 0 0 0 0 0 1 1 1 1 1 1 0
3 3 4 4 4 4 5 6 7 7 7 6 5 4 3 3 3 2 2 2 2 2 1 1 1 1 1 1 1 1 1 0 0 0 0 1 1 1 1 1 1 1 1
3 3 3 4 4 4 4 5 6 7 8 7 5 4 3 3 2 2 2 2 2 2 1 1 1 1 1 1 1 1 1 1 1 1 1 1 1 1 1 1 1 1 1
3 3 3 4 4 4 4 4 5 6 8 8 7 5 3 3 2 2 2 2 2 1 1 1 1 1 1 1 1 1 1 1 1 1 1 1 1 1 1 1 1 1 1
3 3 4 4 4 3 4 4 4 5 6 7 7 5 4 3 3 3 2 2 2 1 1 1 1 1 1 1 1 1 1 1 1 2 2 2 2 1 1 1 1 1 1
3 4 4 4 4 3 3 4 4 4 4 5 6 5 4 3 3 3 3 2 2 1 1 1 1 1 1 1 1 1 1 1 1 2 2 2 2 1 1 1 1 1 1
4 4 5 5 4 4 3 3 3 3 3 3 4 4 3 3 3 3 3 2 2 2 2 1 1 1 1 1 1 1 1 1 1 1 2 2 1 1 1 1 1 1 1
4 5 5 5 5 4 4 4 4 4 3 3 3 3 2 2 2 3 3 2 2 2 2 2 2 2 2 1 1 1 1 1 1 1 1 1 1 1 1 1 2 2 2
4 4 5 5 5 4 4 4 4 4 3 3 2 2 2 2 2 2 2 3 3 2 2 2 2 2 2 2 2 1 1 0 0 1 1 1 1 1 1 1 1 2 2
3 3 4 5 5 5 4 4 4 3 2 2 2 2 2 2 2 1 2 2 3 3 2 2 2 2 2 2 2 1 1 0 0 0 1 1 1 1 1 1 1 1 1
2 2 3 4 4 5 5 4 4 3 2 1 1 1 2 2 2 1 1 2 2 2 2 1 2 2 2 2 2 1 0 0 0 0 0 0 0 0 0 0 0 0 0
1 2 2 3 4 4 4 4 3 2 2 1 1 1 2 2 2 1 1 1 1 1 1 1 1 1 2 2 1 1 0 0 0 0 0 0 0 0 0 0 0 0 0
1 1 2 2 3 3 4 4 4 3 2 2 2 2 2 2 1 1 1 0 0 0 0 0 1 1 1 1 1 1 0 0 0 0 0 0 0 0 0 0 0 0 0
1 1 1 2 2 3 4 4 4 3 2 2 2 2 2 1 1 1 0 0 0 0 0 0 0 0 1 1 1 0 0 0 0 0 0 0 0 0 0 0 0 0 0
1 1 1 1 2 3 3 3 3 2 2 1 2 2 1 1 1 1 0 0 0 0 0 0 0 0 1 1 1 0 0 0 0 0 0 0 0 0 0 0 0 0 0
Wind_Speed
8 12 18 18 16 15 15 16 16 17 17 18 18 17 17 17 17 16 15 14 13 12 12 11 11 12 13 14 14 15 15 16 16 17 16 16 15 15 15 15 14 11 15
13 14 19 19 18 16 16 16 16 16 17 17 17 17 16 16 16 15 14 13 13 12 12 12 11 12 13 14 14 15 15 15 15 15 16 15 15 15 15 14 13 10 14
15 14 17 19 18 17 17 16 16 16 17 17 16 17 16 16 15 14 14 13 12 12 12 12 12 12 13 13 14 14 14 14 13 14 13 9 11 14 14 14 14 14 13
15 13 14 20 18 18 17 16 16 17 17 16 16 16 16 15 14 14 14 13 12 12 12 12 12 12 12 13 13 13 13 13 12 12 7 7 8 13 14 14 14 14 13
13 11 14 20 19 18 18 17 16 17 16 16 15 15 15 14 13 13 14 13 12 12 12 12 12 12 12 12 12 12 12 12 12 10 6 5 6 12 14 14 13 13 13
12 11 13 19 18 18 17 17 17 17 16 16 15 14 14 13 13 12 13 12 12 12 12 12 12 11 11 11 11 10 10 11 10 6 6 6 6 11 13 13 13 13 12
10 9 11 17 17 17 16 16 16 16 15 14 14 13 12 12 11 11 12 12 11 11 11 11 11 10 9 9 9 8 8 10 7 6 6 6 7 11 12 13 13 12 12
10 9 10 16 17 17 16 15 15 14 13 13 13 12 11 11 10 10 10 10 10 10 10 10 10 9 8 7 7 6 6 8 7 6 6 6 7 10 12 12 12 12 12
8 8 7 8 11 14 15 14 13 13 13 12 12 12 11 11 10 10 10 9 9 9 9 10 9 9 7 6 5 4 4 6 6 5 7 5 8 11 11 11 11 11 11
7 6 6 6 6 7 8 13 13 13 12 12 12 12 12 11 11 11 9 9 9 9 9 9 9 8 7 5 4 4 4 5 4 5 4 6 10 11 11 11 11 11 10
6 5 5 6 6 6 6 9 10 12 12 11 10 12 10 5 5 6 8 10 10 10 9 9 8 7 6 5 4 4 4 2 3 3 3 7 10 11 11 11 11 11 10
7 6 4 5 5 5 6 5 4 4 5 5 4 5 4 3 3 5 6 10 10 10 9 8 8 7 4 2 2 3 1 2 2 2 3 8 9 10 11 10 10 10 10
7 5 4 4 4 4 3 3 3 2 3 3 4 4 4 3 3 3 2 4 4 6 4 4 4 3 3 2 2 2 2 2 2 2 3 8 8 10 10 10 10 9 9
6 6 4 4 4 3 3 3 3 3 3 3 3 4 4 3 3 2 2 2 2 2 2 2 2 3 3 3 3 3 3 2 2 2 3 7 7 8 10 10 10 9 8
4 4 4 5 4 3 2 2 3 3 3 3 3 4 4 4 4 3 3 2 2 2 2 3 3 3 3 3 3 4 3 3 3 3 2 6 6 7 8 9 10 9 9
3 2 2 3 3 3 3 2 2 2 2 3 3 4 5 4 4 4 3 3 3 3 3 3 3 3 3 3 3 3 3 3 3 3 2 3 6 7 8 9 9 10 10
2 2 2 3 2 2 2 2 2 1 2 2 2 2 3 4 4 3 3 3 3 2 3 2 3 2 2 2 3 3 3 3 3 3 3 2 3 6 8 9 9 10 10
2 2 1 2 2 2 2 1 1 1 1 2 2 2 2 3 3 3 3 3 3 3 3 3 3 3 3 3 3 2 2 3 3 3 3 3 3 3 6 10 10 10 10
2 2 2 2 1 2 2 1 1 2 1 1 1 1 1 2 3 3 3 3 3 3 3 4 3 3 3 4 3 3 2 2 3 3 4 4 4 4 4 8 11 11 11
4 3 3 2 2 2 2 2 2 2 2 1 1 1 0 1 1 2 2 2 2 3 3 3 4 3 3 4 4 3 3 3 3 3 4 4 4 5 5 5 5 8 11
6 5 4 4 3 2 1 1 1 1 1 1 1 2 1 0 1 2 2 2 3 3 4 4 3 5 4 4 4 3 2 3 4 2 3 4 5 5 6 6 5 4 5
6 6 4 4 3 3 2 1 1 1 1 1 2 2 2 2 1 1 2 2 3 3 3 4 4 3 3 4 4 4 3 2 2 2 2 3 5 5 6 6 6 6 5
7 6 5 4 4 3 2 2 2 1 1 1 2 2 2 2 2 1 1 1 1 2 3 4 5 5 5 3 2 4 5 4 2 2 2 3 4 4 5 5 6 6 6
6 6 6 5 5 5 4 3 2 1 1 1 1 1 2 3 3 2 2 1 1 1 2 2 3 3 5 5 2 1 2 4 5 3 1 2 4 4 4 5 5 5 5
6 6 6 6 7 6 5 4 3 2 2 2 3 3 3 4 4 4 3 2 2 1 1 0 1 2 3 4 4 3 2 2 3 4 4 3 3 3 3 4 4 4 4
7 7 7 7 8 7 6 6 5 4 4 4 4 4 4 3 4 6 5 4 3 3 3 1 0 1 2 3 3 3 3 3 3 3 4 5 4 3 3 3 3 3 3
Wind_Direction
145 148 149 146 141 135 129 123 120 120 120 123 125 127 130 133 134 136 137 137 137 135 130 125 121 117 116 117 119 120 122 123 125 126 126 125 123 121 119 116 115 113 114
144 149 149 147 143 139 133 128 124 121 121 122 124 126 129 131 132 134 136 137 136 134 131 128 125 123 123 123 124 126 127 129 131 132 132 130 128 125 123 121 120 120 117
140 146 148 148 145 141 136 132 129 127 125 125 126 128 129 130 132 134 136 136 136 134 133 131 129 128 128 128 129 130 132 132 132 131 126 126 130 131 129 128 127 123 122
139 143 147 149 146 142 139 135 133 132 131 130 130 131 132 133 135 136 138 138 136 135 134 133 132 130 131 132 133 134 134 132 131 126 116 128 136 138 136 133 131 129 126
137 142 151 149 147 144 142 140 138 136 136 135 135 136 137 137 137 138 140 140 139 137 136 135 133 133 134 135 136 136 136 137 134 126 123 126 131 142 140 138 135 133 132
136 142 152 149 147 146 146 145 144 142 142 141 141 141 142 142 141 142 143 142 142 140 138 137 137 137 138 137 139 141 142 143 132 133 134 136 139 149 146 145 141 140 139
133 139 151 150 148 147 149 151 149 148 147 146 146 146 146 146 145 146 147 147 146 145 144 143 142 140 140 140 141 142 146 146 137 144 146 150 156 156 153 151 147 146 146
133 136 147 153 152 151 153 155 154 153 152 151 151 151 151 150 150 150 152 154 154 153 152 149 147 145 143 142 141 142 150 152 147 155 156 161 167 162 160 156 153 152 151
123 129 137 150 154 156 157 158 159 158 157 157 157 157 157 158 158 160 161 162 161 160 160 158 156 155 152 147 145 144 147 149 142 157 164 167 174 170 165 161 158 157 157
117 127 136 143 143 147 157 165 165 164 163 163 164 166 167 168 169 172 169 171 172 171 172 169 167 165 161 157 156 151 140 129 141 159 160 173 178 176 171 167 165 162 162
128 133 145 147 142 143 152 171 170 169 170 170 172 174 173 170 171 177 180 182 183 183 183 179 176 173 170 168 169 165 137 127 148 159 166 182 182 183 177 173 171 169 166
153 156 148 150 151 150 161 161 158 164 163 163 163 169 160 156 176 182 191 194 194 192 191 189 186 180 166 153 175 160 136 153 162 176 190 191 190 187 180 176 175 174 171
152 151 147 155 157 157 157 150 154 149 154 159 164 165 155 155 174 181 181 203 202 197 189 193 186 164 156 166 173 168 168 172 178 194 203 194 190 187 182 178 179 176 172
141 147 152 146 148 157 154 153 157 160 166 170 164 164 163 167 179 180 181 184 183 179 175 176 172 171 170 179 187 186 181 179 181 187 203 191 184 183 182 181 178 172 165
142 156 162 152 153 157 142 157 159 160 164 167 161 171 174 179 185 185 189 186 189 183 180 185 186 183 179 183 190 188 183 182 180 174 188 184 176 176 178 176 172 168 159
145 152 143 148 140 130 134 144 152 168 168 162 171 182 179 182 184 184 188 187 194 194 186 188 190 181 179 175 184 177 166 162 161 154 156 164 162 161 165 163 162 159 152
140 138 146 152 128 130 138 141 140 162 169 166 173 182 189 187 188 189 190 194 198 188 179 181 187 174 176 170 163 152 141 141 140 136 136 135 142 146 146 143 144 146 142
84 102 106 140 131 138 128 129 140 126 140 163 167 170 194 202 200 193 192 199 195 186 188 193 184 177 170 153 138 126 123 125 124 124 124 125 120 122 129 131 131 131 131
67 80 75 60 115 150 125 107 91 108 107 115 133 137 192 205 199 194 202 196 185 199 199 199 185 172 163 149 134 113 104 104 106 115 116 114 113 113 115 124 126 126 126
47 57 59 42 27 40 76 69 68 79 88 94 104 109 150 202 188 200 208 196 192 204 202 190 177 165 157 148 127 105 88 86 90 97 111 109 111 110 109 108 111 119 120
39 39 34 30 18 29 54 59 68 64 48 71 80 65 76 139 178 208 211 192 198 207 206 188 170 160 156 142 124 116 76 69 78 84 100 108 107 106 104 102 99 99 110
35 32 33 27 22 23 17 19 70 64 44 50 55 53 56 60 105 162 159 198 193 193 195 191 171 164 165 168 150 138 141 112 72 71 90 110 109 107 106 103 99 95 93
25 24 25 21 31 29 29 46 62 68 48 36 36 29 47 72 60 57 112 176 176 173 192 195 185 177 175 178 166 153 157 171 138 83 83 104 114 111 110 104 102 99 95
18 19 24 27 32 25 33 52 55 69 69 38 36 38 37 50 50 46 47 71 142 159 177 194 188 195 174 172 163 126 123 141 146 138 100 95 109 108 111 113 107 99 95
23 24 21 30 36 26 27 37 49 56 62 53 53 53 45 40 43 45 48 47 43 45 59 135 190 187 177 171 159 143 112 95 105 135 146 138 98 80 91 99 102 99 97
26 28 27 35 36 29 31 33 37 46 60 62 54 45 38 37 39 38 43 38 39 46 50 42 56 146 149 146 133 134 143 146 147 136 139 140 119 81 73 80 93 101 102